HORUS 2 (55844 NORAD) Tracking and Keplerian Element Data

This shows tracking and keplerian element data for the satellite.

Feedback or suggestion? Click here.




ElementValue
Catalog55844
NameHORUS 2
Epoch Orbit828
Epoch Day126.53429686
Epoch Year2023
RAAN200.0462
Inclination97.469
Eccentricity0.000786
Argument of Perigee76.0478
Mean Anonmoly31.9983
Mean Motion15.23571199
Decay Rate8.428E-05
L11 55844U 23032A 23126.53429686 .00008428 00000+0 35501-3 0 9991
L22 55844 97.4690 200.0462 0007860 76.0478 31.9983 15.23571199 8284



Live tracking and technical data element details for HORUS 2 (NORAD 55844). HORUS 2 can be tracked NOW for your location showing map with azimuth and elevation plus other details from your city location.







IsCatalogInMostPopularTable: catalog: 55844, numindb: 7
Update: records affected: 1



GetName: 55844 HORUS 2

Hit Count: updated at: Tue, 06 Jun 2023 03:01:12 GMT